Nenana, AK

8:13 PM AKDT on July 20, 2017 (GMT -0800)
Nenana Municipal

Weather History for PANN - April, 2014

Change the Weather History Date:

Wednesday, April 9, 2014

  Actual Average Record
Temperature  
Mean Temperature 22 °F -  
Max Temperature 43 °F 34 °F 64 °F (1959)
Min Temperature 0 °F 8 °F 0 °F (2014)
Degree Days  
Heating Degree Days 43    
Moisture  
Dew Point -1 °F    
Average Humidity 61    
Maximum Humidity 100    
Minimum Humidity 33    
Precipitation  
Precipitation 0.28 in - - ()
Sea Level Pressure  
Sea Level Pressure 29.98 in    
Wind  
Wind Speed 3 mph (West)    
Max Wind Speed 13 mph    
Max Gust Speed -    
Visibility 10 miles    
Events Rain    
Averages and records for this station are not official NWS values.
T = Trace of Precipitation, MM = Missing Value Source: NWS Daily Summary

Daily Weather History Graph

Daily Weather History Graph

Search for Another Location

Airport or City:

Trip Planner

Search our weather history database for the weather conditions in past years. The results will help you decide how hot, cold, wet, or windy it might be!

Date:

Astronomy

Apr. 09, 2014 Rise Set
Actual Time 6:43 AM AKDT 9:13 PM AKDT
Civil Twilight 5:50 AM AKDT 10:07 PM AKDT
Nautical Twilight 4:36 AM AKDT 11:23 PM AKDT
Astronomical Twilight 2:30 AM AKDT 1:25 AM AKDT
Moon 2:28 PM AKDT (4/9) 5:26 AM AKDT (4/9)
Length of Visible Light 16h 17m
Length of Day
14h 30m
Waxing Gibbous, 73% of the Moon is Illuminated
Apr 9
Waxing Gibbous
Apr 14
Full
Apr 21
Last Quarter
Apr 28
New
May 6
First Quarter

Hourly Weather History & Observations

Time (AKDT) Temp. Windchill Dew Point Humidity Pressure Visibility Wind Dir Wind Speed Gust Speed Precip Events Conditions
12:53 AM -2.0 °F - -9.0 °F 72% 29.81 in 10.0 mi Calm Calm - N/A   Scattered Clouds
1:53 AM -2.0 °F - -9.0 °F 72% 29.83 in 10.0 mi Calm Calm - N/A   Partly Cloudy
2:53 AM -5.1 °F -15.8 °F -11.0 °F 76% 29.85 in 10.0 mi SSW 4.6 mph - N/A   Clear
3:53 AM -5.1 °F - -11.0 °F 76% 29.87 in 10.0 mi Calm Calm - N/A   Scattered Clouds
4:53 AM -6.0 °F -14.7 °F -11.9 °F 75% 29.89 in 10.0 mi West 3.5 mph - N/A   Clear
5:53 AM -5.1 °F - -13.0 °F 69% 29.91 in 10.0 mi Calm Calm - N/A   Clear
6:53 AM -6.0 °F -14.7 °F -13.0 °F 72% 29.93 in 10.0 mi West 3.5 mph - N/A   Clear
7:53 AM -6.0 °F - -11.9 °F 75% 29.96 in 10.0 mi Calm Calm - N/A   Clear
8:53 AM 1.0 °F -6.7 °F -9.0 °F 63% 29.97 in 10.0 mi Variable 3.5 mph - N/A   Clear
9:53 AM 5.0 °F -5.6 °F -7.1 °F 58% 29.99 in 10.0 mi West 5.8 mph - N/A   Clear
10:53 AM 8.1 °F -3.2 °F -7.1 °F 50% 30.01 in 10.0 mi WNW 6.9 mph - 0.00 in   Clear
11:53 AM 10.9 °F 2.9 °F -7.1 °F 44% 30.03 in 10.0 mi Variable 4.6 mph - 0.00 in   Clear
12:53 PM 12.0 °F 2.7 °F -8.0 °F 41% 30.04 in 10.0 mi Variable 5.8 mph - 0.00 in   Clear
1:53 PM 14.0 °F 6.5 °F -5.1 °F 43% 30.04 in 10.0 mi SSW 4.6 mph - N/A   Clear
2:53 PM 15.1 °F 9.4 °F -4.0 °F 43% 30.05 in 10.0 mi Variable 3.5 mph - N/A   Clear
3:53 PM 16.0 °F 8.8 °F -5.1 °F 39% 30.05 in 10.0 mi Variable 4.6 mph - N/A   Clear
4:53 PM 17.1 °F 11.7 °F -6.0 °F 36% 30.05 in 10.0 mi WNW 3.5 mph - N/A   Clear
5:53 PM 18.0 °F 12.7 °F -7.1 °F 33% 30.05 in 10.0 mi North 3.5 mph - N/A   Clear
6:53 PM 18.0 °F 12.7 °F -6.0 °F 35% 30.06 in 10.0 mi NNW 3.5 mph - N/A   Clear
7:53 PM 17.1 °F 10.0 °F -7.1 °F 34% 30.06 in 10.0 mi NW 4.6 mph - N/A   Clear
8:53 PM 14.0 °F 8.2 °F -5.1 °F 43% 30.07 in 10.0 mi South 3.5 mph - N/A   Clear
9:53 PM 6.1 °F - -6.0 °F 58% 30.08 in 10.0 mi Calm Calm - N/A   Clear
10:53 PM 1.9 °F - -7.1 °F 66% 30.09 in 10.0 mi Calm Calm - N/A   Clear
11:53 PM -0.9 °F - -8.0 °F 72% 30.10 in 10.0 mi Calm Calm - N/A   Clear